Wind_Speed
4 4 4 4 4 4 4 5 5 6 6 5 5 4 3 2 1 1 2 3 4 5 6 7 8 9 10 11 11 12 13 13 13 14 14 14 14 13 13 13 12 11 9
3 3 3 3 2 2 2 3 3 3 3 3 3 2 2 1 1 0 1 2 3 4 5 6 6 7 8 9 10 11 11 12 12 12 13 14 13 13 13 11 10 9 8
3 3 3 3 3 2 2 1 1 1 1 1 1 1 1 0 0 1 1 2 2 3 4 5 5 6 7 7 8 9 9 10 10 11 11 12 12 11 11 10 9 8 7
4 4 5 5 4 4 4 3 2 2 2 1 1 1 1 1 2 2 2 2 2 3 4 4 5 5 5 6 6 7 8 8 8 9 9 9 9 9 9 8 7 6 6
6 6 6 7 7 6 6 6 5 4 4 4 4 3 3 3 3 3 3 3 3 3 3 4 4 4 4 5 5 6 7 7 7 8 8 8 7 7 7 7 6 6 5
8 8 8 9 9 9 9 8 8 8 7 7 6 6 5 5 5 4 4 4 4 4 3 4 4 4 4 4 5 6 6 6 6 6 6 6 6 6 6 5 5 5 4
10 10 11 11 12 12 12 12 12 11 11 10 10 9 9 8 7 7 7 6 6 5 5 5 5 4 5 5 5 5 5 5 5 5 5 5 5 5 4 4 4 4 3
12 13 12 13 13 14 14 14 15 15 14 14 14 13 12 12 11 10 9 9 8 8 7 6 5 5 5 5 5 5 5 5 5 5 5 5 5 4 4 4 3 3 2
15 15 15 15 15 15 16 17 17 18 18 18 17 17 16 15 14 14 12 12 11 10 9 8 7 6 5 5 5 5 5 5 5 4 4 4 4 4 3 3 3 2 2
18 18 18 18 18 17 18 18 19 19 20 20 20 20 19 19 18 17 16 15 14 13 12 11 10 8 7 6 6 6 6 5 4 4 4 3 3 3 3 3 2 2 1
21 21 21 21 21 21 21 21 21 21 22 22 22 23 22 21 21 21 19 18 17 16 15 13 12 11 10 9 8 7 6 6 5 4 3 3 3 2 2 2 2 1 1
24 25 25 25 25 25 25 26 25 25 25 25 24 25 24 24 24 23 23 21 20 19 18 16 15 13 12 11 10 9 8 7 6 5 4 3 2 2 2 2 1 1 0
28 29 29 29 29 29 29 29 29 29 28 28 27 27 27 26 27 26 25 25 23 22 21 20 18 16 15 14 12 11 10 9 7 6 6 4 3 3 2 1 1 1 1
32 33 33 33 33 33 33 34 33 32 32 32 31 30 29 28 28 28 27 27 26 24 23 23 22 19 17 16 15 13 12 11 9 8 7 6 5 4 3 2 2 1 1
34 35 36 36 36 36 37 37 37 37 36 35 35 34 32 30 29 29 29 28 27 27 25 24 23 22 20 19 18 17 15 13 12 10 9 8 7 6 4 4 3 3 2
35 35 36 36 36 36 37 37 38 38 38 37 37 36 35 33 32 32 30 30 30 29 28 26 26 25 23 21 20 19 18 16 14 13 12 10 9 7 7 6 5 4 4
33 34 34 34 35 35 35 36 37 38 39 39 39 39 37 36 35 35 33 31 31 30 28 28 27 25 25 24 23 22 21 19 17 16 14 13 11 10 9 8 7 6 6
31 32 32 32 33 34 34 35 36 37 38 39 39 40 40 39 38 37 36 35 33 32 30 29 28 27 26 25 25 24 23 22 20 19 17 15 14 13 11 10 9 9 8
29 29 30 30 31 31 32 32 33 35 36 37 38 39 40 40 40 40 38 37 36 34 32 29 28 28 26 26 27 26 24 23 22 21 20 18 17 15 14 13 12 11 10
26 26 26 27 28 29 30 31 32 33 34 35 36 37 38 40 41 40 40 40 39 36 35 33 31 30 29 27 26 26 26 25 24 23 21 20 19 18 17 16 15 14 12
24 24 25 25 26 26 27 28 29 30 31 32 34 35 36 38 39 41 42 41 41 38 36 35 34 33 31 29 28 26 28 27 25 24 23 22 22 20 19 18 18 17 15
23 23 23 24 24 24 24 24 25 27 28 29 30 32 34 36 38 39 42 42 41 40 39 38 36 35 32 31 30 28 27 28 27 26 25 24 24 23 22 21 20 19 18
22 22 22 22 22 21 21 21 22 23 24 25 27 29 31 33 35 37 38 41 42 42 41 40 39 37 36 34 33 31 29 28 29 29 28 27 26 25 25 24 23 22 21
22 22 21 20 20 20 19 19 20 20 20 21 23 25 26 28 31 34 36 37 40 41 42 42 41 39 38 37 35 33 31 30 30 29 29 28 28 28 27 26 25 24 23
22 21 21 20 20 19 19 18 18 18 18 19 19 21 23 25 27 30 33 35 37 39 41 42 41 40 39 39 37 35 34 33 31 31 30 29 29 30 29 28 27 26 26
22 22 21 20 20 19 18 18 17 16 16 16 16 17 19 21 23 25 28 31 33 36 38 40 40 41 40 40 39 38 37 36 34 33 32 31 31 31 31 30 29 28 28
Wind_Direction
39 43 42 44 50 58 70 84 93 100 104 105 106 109 117 134 182 255 282 277 274 275 277 282 283 281 280 279 280 282 285 287 289 289 289 291 295 298 300 300 303 308 314
9 7 2 4 16 28 42 61 80 91 98 103 110 114 121 128 143 269 291 294 291 290 290 290 287 285 284 284 285 286 288 291 292 292 290 290 292 295 296 295 299 304 307
327 324 318 317 324 331 341 352 24 58 92 114 123 133 140 158 254 297 303 306 310 313 311 309 302 294 291 289 288 290 291 294 296 296 296 294 292 295 295 292 297 301 301
298 298 296 295 294 295 297 295 294 294 288 274 255 251 258 270 278 286 295 302 312 320 324 324 321 314 305 299 294 294 295 300 305 306 303 299 294 294 296 292 295 296 298
284 284 283 282 281 281 282 282 279 276 273 271 268 265 262 268 275 277 282 287 298 310 320 325 326 326 320 317 310 305 306 309 311 311 310 306 300 296 298 298 295 293 296
280 279 279 276 273 272 272 271 270 269 268 267 264 263 262 263 265 270 273 277 283 291 303 312 317 322 323 324 322 316 314 317 316 320 321 318 312 306 303 304 305 293 285
287 282 278 277 275 271 269 266 265 264 264 264 263 262 263 262 260 264 267 270 273 277 284 291 301 309 315 318 318 318 318 318 318 324 329 330 326 319 312 308 305 298 282
290 289 283 282 279 275 271 268 266 263 262 261 261 261 261 260 261 262 264 265 267 269 271 276 282 290 300 308 309 308 311 315 317 321 327 333 334 334 328 318 311 307 289
288 286 284 282 282 280 276 272 268 264 263 262 261 259 258 258 258 259 260 261 262 264 265 267 271 276 282 291 298 300 304 310 312 318 323 333 338 345 348 338 322 320 304
285 283 281 280 279 278 278 276 272 269 267 265 262 258 257 256 257 257 258 259 260 260 261 263 265 267 269 276 285 293 299 301 303 311 319 329 336 346 352 346 331 323 307
279 278 279 278 275 272 272 272 270 268 267 267 264 261 257 256 256 256 256 257 258 258 258 260 262 262 262 266 273 281 288 290 287 290 300 315 323 339 352 354 346 334 308
276 275 274 274 271 270 270 268 266 264 265 266 266 263 258 256 257 256 255 254 256 257 257 258 259 258 257 258 261 267 272 276 274 274 278 287 299 320 333 348 354 354 113
276 274 271 270 268 268 268 267 267 266 264 264 265 264 261 259 256 257 254 252 253 254 256 256 257 255 254 253 254 258 261 263 262 262 264 264 268 283 297 306 320 336 143
278 276 273 271 269 268 268 266 265 265 265 264 265 264 262 260 257 256 255 254 252 253 256 255 253 253 253 253 250 252 254 254 253 252 253 253 252 259 268 273 272 260 221
281 278 275 273 271 269 268 266 265 264 263 262 262 261 261 260 258 255 253 253 253 254 254 253 250 250 248 249 248 248 248 249 249 246 247 247 245 248 251 255 254 241 230
285 283 280 277 274 272 269 267 265 264 262 260 259 260 259 258 255 254 254 251 250 252 252 252 250 249 248 247 245 245 245 245 246 243 242 241 241 242 243 244 243 237 230
289 287 284 281 278 275 272 268 265 264 262 259 258 257 257 255 254 253 252 250 250 250 251 250 250 249 246 246 245 245 244 244 243 241 238 238 238 238 239 239 239 236 229
293 291 289 287 283 279 275 272 268 265 263 260 257 255 254 253 252 251 250 249 250 249 249 252 249 246 246 245 245 244 243 242 240 238 236 237 237 237 237 238 239 237 233
298 295 293 291 287 284 280 276 272 267 264 261 258 255 253 251 250 249 248 248 247 246 246 249 247 245 243 242 242 241 239 239 238 238 237 237 238 238 239 238 238 237 236
306 302 299 297 293 288 284 280 276 271 266 262 258 256 254 251 249 247 246 246 245 244 243 243 243 244 243 241 241 239 235 236 237 238 238 238 238 239 239 238 237 237 236
310 307 304 302 300 296 291 285 279 274 270 265 260 256 253 251 249 246 243 242 242 241 240 240 240 241 242 241 238 237 235 234 237 238 238 237 236 237 237 238 237 237 238
320 316 313 310 307 303 297 291 285 279 273 268 263 258 255 252 249 246 242 239 239 239 238 237 238 237 236 237 236 236 235 235 235 237 236 236 237 236 236 237 237 238 239
331 328 324 320 316 311 306 300 293 286 278 272 265 260 256 252 249 246 243 240 238 237 236 235 236 235 234 232 233 234 235 234 234 234 237 236 237 236 236 236 238 239 240
339 338 335 332 327 322 315 309 304 296 287 279 270 264 259 254 250 246 244 241 238 236 235 234 234 234 232 230 231 233 234 234 233 233 234 235 236 237 237 237 237 239 241
348 347 346 343 338 333 325 318 312 304 294 286 276 269 262 255 250 247 244 242 239 236 234 233 233 232 231 230 230 231 233 234 233 233 234 235 235 235 236 237 238 239 242
354 353 351 350 347 343 338 333 327 319 307 297 286 276 268 259 252 247 244 242 239 236 234 233 232 231 231 230 230 230 233 233 233 234 234 235 234 235 236 237 239 239 242
Height
5907 5906 5906 5906 5905 5905 5904 5904 5904 5904 5904 5904 5904 5904 5905 5905 5906 5906 5906 5906 5906 5907 5907 5907 5907 5907 5907 5907 5907 5907 5907 5907 5907 5907 5906 5906 5906 5905 5905 5904 5904 5903 5903
5907 5906 5906 5906 5905 5905 5904 5904 5904 5904 5904 5904 5904 5904 5904 5905 5905 5905 5905 5905 5906 5906 5906 5906 5905 5906 5906 5906 5906 5906 5906 5906 5905 5905 5905 5904 5904 5903 5903 5902 5902 5902 5902
5906 5906 5906 5905 5905 5904 5904 5904 5903 5903 5903 5903 5903 5903 5904 5904 5904 5904 5904 5905 5905 5905 5905 5905 5904 5904 5904 5904 5904 5904 5904 5904 5904 5903 5903 5902 5902 5901 5901 5901 5901 5901 5901
5905 5905 5905 5904 5904 5903 5903 5903 5903 5902 5902 5902 5902 5903 5903 5903 5903 5903 5903 5904 5904 5904 5904 5904 5903 5903 5903 5903 5903 5903 5903 5903 5902 5902 5901 5901 5900 5900 5900 5899 5899 5899 5900
5904 5903 5903 5903 5902 5902 5902 5901 5901 5901 5901 5901 5901 5902 5902 5902 5902 5902 5903 5903 5903 5903 5903 5903 5902 5902 5902 5902 5902 5902 5902 5902 5901 5901 5900 5900 5899 5899 5899 5898 5898 5898 5899
5902 5901 5901 5901 5900 5900 5900 5899 5899 5899 5899 5900 5900 5900 5900 5901 5901 5901 5901 5902 5902 5902 5902 5902 5902 5902 5902 5901 5901 5901 5901 5901 5901 5900 5900 5899 5898 5898 5898 5897 5897 5897 5898
5899 5899 5899 5898 5898 5898 5897 5897 5897 5897 5897 5897 5898 5898 5898 5899 5899 5899 5900 5900 5900 5900 5901 5901 5901 5901 5901 5901 5900 5900 5900 5900 5900 5899 5899 5898 5898 5897 5897 5897 5897 5897 5897
5897 5896 5896 5896 5895 5895 5895 5894 5894 5894 5894 5895 5895 5895 5896 5896 5897 5897 5898 5898 5899 5899 5899 5899 5899 5899 5900 5900 5900 5899 5899 5899 5899 5899 5898 5898 5897 5897 5897 5897 5896 5896 5897
5895 5894 5894 5893 5892 5892 5892 5891 5891 5891 5891 5891 5892 5892 5893 5893 5894 5895 5895 5896 5896 5897 5897 5897 5898 5898 5898 5898 5898 5898 5898 5898 5898 5898 5898 5898 5897 5897 5896 5896 5896 5896 5896
5892 5891 5890 5890 5889 5888 5888 5887 5887 5887 5887 5887 5887 5888 5889 5889 5890 5891 5892 5893 5894 5894 5895 5895 5896 5896 5897 5897 5897 5897 5897 5897 5897 5897 5897 5897 5897 5896 5896 5896 5896 5896 5896
5888 5887 5886 5885 5885 5884 5884 5883 5882 5882 5882 5882 5883 5883 5884 5885 5886 5887 5888 5890 5890 5891 5892 5892 5893 5894 5894 5895 5895 5895 5896 5896 5896 5896 5896 5896 5896 5896 5896 5896 5896 5896 5896
5884 5882 5881 5880 5880 5879 5878 5878 5878 5877 5877 5877 5877 5878 5878 5879 5881 5882 5884 5885 5886 5887 5888 5889 5890 5891 5892 5892 5893 5893 5894 5894 5895 5895 5895 5895 5895 5895 5896 5896 5896 5896 5896
5878 5876 5875 5874 5873 5873 5873 5872 5872 5871 5871 5872 5872 5872 5873 5873 5875 5876 5878 5880 5881 5882 5884 5885 5886 5887 5888 5889 5890 5891 5891 5892 5893 5893 5894 5894 5894 5895 5895 5895 5896 5896 5896
5870 5869 5868 5867 5867 5866 5866 5865 5865 5865 5865 5865 5865 5865 5866 5867 5868 5870 5872 5874 5876 5877 5878 5880 5881 5883 5884 5885 5887 5888 5888 5889 5890 5891 5892 5893 5893 5893 5894 5894 5895 5895 5896
5862 5860 5859 5858 5857 5857 5857 5857 5857 5857 5857 5857 5858 5858 5859 5861 5862 5863 5865 5867 5869 5871 5873 5874 5876 5878 5880 5881 5882 5884 5885 5886 5887 5888 5889 5890 5891 5892 5893 5893 5894 5895 5895
5853 5852 5850 5848 5848 5847 5847 5847 5847 5848 5848 5849 5850 5850 5851 5853 5855 5857 5858 5860 5863 5864 5866 5868 5870 5872 5874 5876 5878 5879 5881 5882 5884 5885 5887 5888 5889 5890 5891 5892 5893 5893 5894
5845 5843 5841 5839 5838 5837 5837 5837 5837 5837 5838 5839 5840 5841 5843 5845 5847 5849 5851 5853 5855 5857 5859 5862 5864 5866 5868 5871 5873 5875 5877 5878 5880 5882 5883 5885 5886 5888 5889 5890 5891 5892 5893
5837 5835 5832 5830 5829 5828 5827 5827 5826 5827 5827 5828 5830 5831 5833 5835 5837 5840 5842 5845 5847 5850 5852 5855 5857 5860 5862 5864 5867 5869 5872 5874 5876 5878 5879 5881 5883 5885 5886 5887 5889 5890 5891
5830 5828 5825 5823 5820 5819 5818 5817 5816 5816 5817 5817 5819 5821 5822 5825 5827 5830 5833 5836 5838 5842 5845 5848 5851 5853 5856 5858 5860 5863 5866 5868 5871 5873 5875 5877 5879 5881 5883 5884 5886 5887 5888
5824 5821 5818 5816 5813 5811 5809 5807 5807 5806 5806 5807 5808 5810 5812 5814 5817 5820 5823 5826 5829 5833 5836 5840 5843 5846 5849 5851 5854 5857 5860 5863 5865 5868 5870 5873 5875 5877 5879 5880 5882 5884 5886
5819 5816 5812 5809 5806 5803 5801 5799 5797 5796 5796 5797 5798 5799 5801 5803 5806 5809 5813 5816 5820 5824 5827 5831 5834 5838 5842 5844 5847 5850 5853 5857 5860 5862 5865 5867 5870 5872 5874 5876 5878 5880 5882
5815 5811 5807 5803 5800 5796 5794 5791 5789 5788 5787 5787 5788 5789 5790 5793 5795 5798 5802 5805 5809 5814 5818 5822 5826 5830 5834 5837 5840 5843 5847 5851 5854 5856 5859 5862 5864 5867 5870 5872 5874 5876 5878
5811 5806 5802 5798 5794 5791 5788 5785 5782 5780 5779 5779 5779 5780 5781 5783 5785 5788 5791 5795 5799 5804 5809 5813 5817 5821 5825 5829 5833 5837 5840 5844 5847 5850 5853 5855 5858 5862 5864 5867 5869 5871 5873
5808 5803 5799 5794 5790 5787 5783 5780 5777 5775 5773 5772 5771 5772 5773 5774 5776 5778 5782 5785 5789 5794 5799 5803 5808 5812 5816 5821 5825 5829 5833 5837 5840 5843 5846 5849 5852 5855 5858 5861 5864 5866 5868
5806 5801 5796 5792 5788 5784 5780 5776 5773 5770 5767 5766 5765 5765 5765 5766 5768 5770 5773 5776 5780 5784 5789 5794 5798 5803 5807 5812 5816 5821 5825 5829 5832 5836 5839 5842 5845 5849 5852 5855 5858 5860 5863
5805 5800 5795 5791 5786 5782 5777 5773 5769 5766 5763 5761 5759 5759 5759 5760 5761 5763 5765 5768 5771 5775 5780 5784 5789 5794 5798 5803 5808 5812 5816 5821 5825 5828 5832 5835 5838 5842 5845 5848 5851 5854 5857